COSMOS 2251 DEB, 35891

Orbit data source: Space-Track

COSMOS 2251 DEB, 35891 is space debris in LEO originally from a launch on Wed, 16 Jun 1993 UTC launched from the Plesetsk Missile And Space Complex (PKMTR). The debris from Iridium 33, an American commercial communications satellite, has been tracked extensively since its accidental collision with the defunct Russian satellite Cosmos 2251 in 2009. This event, occurring at high speed in low Earth orbit (LEO), generated thousands of pieces of space debris, significantly increasing the risk of further collisions. The Iridium 33 debris cloud has impacted space traffic management and orbital debris mitigation strategies, making it a subject of ongoing study in space situational awareness.

Loading next visibility...
Identifier
35891, 1993-036AUE
Orbit
LEO
Country
Flag of CISCIS
Related business
Manufacturer
Unknown
Mission
Spacecraft
Bus & Motor
Unknown
Mass
Unknown
Launch date (UTC)
1993-06-16 (32 years ago)
Launch vehicle
Unknown
Launch site
Plesetsk Missile And Space Complex (PKMTR)
Object type
Payload
Rocket body
Debris
Shape & HBR
Unknown shape, 0.1 m
Radar Cross Section
Small (<0.1 m²)

Expand to show TLE details & history
Last TLE update: 4 days ago

TLE from 4 days ago
0 COSMOS 2251 DEB
1 35891U 93036AUE 25296.45697545  .00050849  00000-0  17682-2 0  9998
2 35891  73.9918 201.3095 0049735 338.8095  21.1044 15.28278416664517
Epoch: 2025-10-23T10:58Z
TLE epoch observation values (Epoch: 2025-10-23T10:58:02.678Z)
Latitude
-0.0001°
Longitude
4.68235°
Altitude
451.869 km
Speed
7.659 km/s
True Right ascension
13h 25m 14s
True Declination
0° 00' 00"
Sunlit
Object was in daylight at epoch
Visualization orbit readout
Latitude
Unknown
Longitude
Unknown
Altitude
Unknown
Speed
Unknown
Apparent Right ascension
Unknown
Apparent Declination
Unknown
Sunlit
N/A
Visualization observer readout
Local Sidereal Time
23:38:10
Azimuth
Unknown
Elevation
Unknown
Doppler factor
Unknown
Orbital elements
Apogee altitude
512.587 km
Perigee altitude
444.384 km
Semi-major axis
6,856.622 km
Eccentricity
0.00497
Inclination
73.9918°
RAAN
201.3095°
Arg. of periapsis
338.8095°
True anomaly
21.31081°
Mean anomaly
21.1044°
Eccentric anomaly
21.20748°
Mean motion
3.82277 °/min
Orbital period
94.17 mins
BSTAR
0.0017682
Loading maneuver chart data...
Computing Atmospheric mass density...

Documentation

Showing up to 5 results
|